Regional Weather Roundup
Issued by NWS

Home | Current Version | Previous Version | Text Only | Print | Product List | Glossary Off
Versions: 1 2 3 4 5 6 7 8 9 10 11 12 13 14 15 16 17 18 19 20 21 22 23 24 25 26 27 28 29 30 31 32 33 34 35 36 37 38 39 40 41 42 43 44 45 46 47 48 49 50

000
ASUS43 KOAX 191210
RWRNE

WEATHER ROUNDUP FOR NEBRASKA
NATIONAL WEATHER SERVICE OMAHA NE
700 AM CDT FRI SEP 19 2014

NOTES: SATELLITE DATA IS BEING USED TO AUGMENT CLOUD COVER ABOVE
       12000 FEET.
       "FAIR" INDICATES FEW OR NO CLOUDS BELOW 12,000 FEET WITH NO
       SIGNIFICANT WEATHER AND/OR OBSTRUCTIONS TO VISIBILITY.

  * THESE STATIONS DO NOT REPORT WEATHER SUCH AS RAIN...SNOW OR FOG.

NEZ001>004-019>022-054>056-191300-
NEBRASKA PANHANDLE

CITY           SKY/WX    TMP DP  RH WIND       PRES   REMARKS
SCOTTSBLUFF    PTCLDY    60  51  72 W12       29.89R
6HR MIN TEMP:  55; 6HR MAX TEMP:  73;

ALLIANCE       PTCLDY    51  48  89 CALM      29.85R
6HR MIN TEMP:  48; 6HR MAX TEMP:  61;

CHADRON        PTCLDY    60  53  77 SW3       29.83S
6HR MIN TEMP:  59; 6HR MAX TEMP:  73;

KIMBALL        CLEAR     62  39  41 W10       29.92R
SIDNEY         CLEAR     59  49  69 SW9       29.90R
6HR MIN TEMP:  59; 6HR MAX TEMP:  64;

$$

NEZ057>060-069>072-079>082-191300-
SOUTHWEST NEBRASKA

CITY           SKY/WX    TMP DP  RH WIND       PRES   REMARKS
NORTH PLATTE   CLEAR     55  54  96 CALM      29.87R
6HR MIN TEMP:  54; 6HR MAX TEMP:  59;

IMPERIAL       CLEAR     60  55  83 S7        29.88R
6HR MIN TEMP:  55; 6HR MAX TEMP:  62;

LEXINGTON      CLEAR     60  59  96 E5        29.88S
MCCOOK         FOG       54  54 100 E3        29.89S VSB 1/2
6HR MIN TEMP:  53; 6HR MAX TEMP:  59;

OGALLALA       CLEAR     52  52  99 CALM      29.87S
$$

NEZ005>010-023>029-035>040-094-191300-
NORTH CENTRAL NEBRASKA

CITY           SKY/WX    TMP DP  RH WIND       PRES   REMARKS
VALENTINE      CLEAR     59  58  96 S9        29.79R
6HR MIN TEMP:  58; 6HR MAX TEMP:  66;

AINSWORTH      PTCLDY    61  60  98 SW8G17    29.80R
BROKEN BOW     CLEAR     63  60  90 S10       29.85S
6HR MIN TEMP:  62; 6HR MAX TEMP:  65;

O`NEILL        PTCLDY    65  64  95 S13G18    29.80S
ORD            PTCLDY    63  61  93 S9        29.83F
6HR MIN TEMP:  63; 6HR MAX TEMP:  67;

THEDFORD       PTCLDY    61  60  97 S12       29.82F
$$

NEZ041-046>049-061>064-073>077-083>087-191300-
SOUTH CENTRAL NEBRASKA

CITY           SKY/WX    TMP DP  RH WIND       PRES   REMARKS
GRAND ISLAND   CLEAR     64  61  90 S12       29.89R
6HR MIN TEMP:  64; 6HR MAX TEMP:  67;

AURORA         CLOUDY    64  63  97 S14       29.90R
HASTINGS       CLEAR     63  59  87 S9        29.90R
6HR MIN TEMP:  63; 6HR MAX TEMP:  67;

HEBRON         PTCLDY    64  61  90 S10       29.93R
HOLDREGE       CLEAR     60  58  94 S7        29.90S
KEARNEY *      CLEAR     61  57  88 S13       29.89S
YORK           CLOUDY    64  63  94 S12       29.91R
$$

NEZ011>018-030>034-042>045-191300-
NORTHEAST NEBRASKA

CITY           SKY/WX    TMP DP  RH WIND       PRES   REMARKS
NORFOLK        MOCLDY    64  62  93 S14       29.85F
6HR MIN TEMP:  61; 6HR MAX TEMP:  65;

ALBION         CLOUDY    64  61  93 S13       29.86F
BLAIR          CLOUDY    64  61  91 S14G20    29.92F FOG
COLUMBUS *     CLOUDY    64  61  88 S10       29.90S
FREMONT        CLOUDY    64  61  91 SE12      29.91F FOG
TEKAMAH        CLOUDY    64  61  90 S15       29.90F
6HR MIN TEMP:  60; 6HR MAX TEMP:  64;

WAYNE          CLOUDY    65  62  89 S17       29.85F
$$

NEZ050>053-065>068-078-088>093-191300-
SOUTHEAST NEBRASKA

CITY           SKY/WX    TMP DP  RH WIND       PRES   REMARKS
LINCOLN        CLEAR     63  61  93 S10       29.93R
6HR MIN TEMP:  63; 6HR MAX TEMP:  65;

OMAHA EPPLEY   CLOUDY    63  60  90 S16       29.94S FOG
6HR MIN TEMP:  61; 6HR MAX TEMP:  63;

BEATRICE       PTCLDY    63  61  95 S10       29.94S
FALLS CITY     CLOUDY    63  62  97 SE9       29.98S FOG
6HR MIN TEMP:  58; 6HR MAX TEMP:  63;

NEBRASKA CITY  CLOUDY    61  61  97 S12       29.96F FOG
PLATTSMOUTH    CLOUDY    61  59  93 SE9       29.95S FOG
$$

NEZ044-045-051>053-067-191300-
OMAHA AREA

CITY           SKY/WX    TMP DP  RH WIND       PRES   REMARKS
OMAHA EPPLEY   CLOUDY    63  60  90 S16       29.94S FOG
6HR MIN TEMP:  61; 6HR MAX TEMP:  63;

BLAIR          CLOUDY    64  61  91 S14G20    29.92F FOG
FREMONT        CLOUDY    64  61  91 SE12      29.91F FOG
MILLARD        CLOUDY    64  61  91 SE9       29.94S FOG
OFFUTT AFB     CLOUDY    62  62 100 SE10      29.95R
PLATTSMOUTH    CLOUDY    61  59  93 SE9       29.95S FOG
WAHOO          CLOUDY    63  60  90 S10G16    29.92S FOG
$$



USA.gov is the U.S. government's official web portal to all federal, state and local government web resources and services.